| time (UTC) | temp F | wind direction | speed knots | gust knots | rain 1hr in | rain 24hr in | rain mn in | humidity % | barometer mb |
| 20260507115223 | 70 | 100 | 3.5 | 0.0 | 0.00 | 0.00 | 0.00 | 95 | 1016.0 |
| 20260507114221 | 70 | 100 | 3.5 | 0.0 | 0.00 | 0.00 | 0.00 | 95 | 1016.0 |
| 20260507113220 | 70 | 100 | 3.5 | 0.0 | 0.00 | 0.00 | 0.00 | 95 | 1016.0 |
| 20260507112219 | 70 | 100 | 3.5 | 0.0 | 0.00 | 0.00 | 0.00 | 95 | 1016.0 |
| 20260507111217 | 70 | 100 | 3.5 | 0.0 | 0.00 | 0.00 | 0.00 | 95 | 1016.0 |
| 20260507110216 | 70 | 110 | 3.5 | 0.0 | 0.00 | 0.00 | 0.00 | 95 | 1016.0 |
| 20260507105215 | 70 | 110 | 3.5 | 0.0 | 0.00 | 0.00 | 0.00 | 95 | 1016.0 |
| 20260507104214 | 70 | 110 | 3.5 | 0.0 | 0.00 | 0.00 | 0.00 | 95 | 1016.0 |
| 20260507103212 | 70 | 110 | 3.5 | 0.0 | 0.00 | 0.00 | 0.00 | 95 | 1016.0 |
| 20260507102211 | 70 | 110 | 3.5 | 0.0 | 0.00 | 0.00 | 0.00 | 95 | 1016.0 |
| 20260507101210 | 70 | 110 | 3.5 | 0.0 | 0.00 | 0.00 | 0.00 | 95 | 1016.0 |
| 20260507100207 | 70 | 110 | 3.5 | 0.0 | 0.00 | 0.00 | 0.00 | 95 | 1016.0 |
| 20260507095206 | 70 | 110 | 3.5 | 0.0 | 0.00 | 0.00 | 0.00 | 95 | 1016.0 |
| 20260507094204 | 71 | 110 | 3.5 | 0.0 | 0.00 | 0.00 | 0.00 | 95 | 1016.0 |
| 20260507093202 | 71 | 110 | 3.5 | 0.0 | 0.00 | 0.00 | 0.00 | 95 | 1016.0 |
| 20260507092201 | 71 | 110 | 3.5 | 0.0 | 0.00 | 0.00 | 0.00 | 95 | 1015.0 |
| 20260507091159 | 71 | 110 | 3.5 | 0.0 | 0.00 | 0.00 | 0.00 | 95 | 1015.0 |
| 20260507090157 | 71 | 110 | 3.5 | 0.0 | 0.00 | 0.00 | 0.00 | 95 | 1015.0 |
| 20260507085156 | 71 | 110 | 3.5 | 0.0 | 0.00 | 0.00 | 0.00 | 95 | 1015.0 |
| 20260507084153 | 71 | 110 | 3.5 | 0.0 | 0.00 | 0.00 | 0.00 | 95 | 1015.0 |
| 20260507083151 | 71 | 110 | 3.5 | 0.0 | 0.00 | 0.00 | 0.00 | 95 | 1015.0 |
| 20260507082149 | 71 | 110 | 3.5 | 0.0 | 0.00 | 0.00 | 0.00 | 95 | 1015.0 |
| 20260507081147 | 71 | 110 | 3.5 | 0.0 | 0.00 | 0.00 | 0.00 | 95 | 1015.0 |
| 20260507080145 | 71 | 110 | 3.5 | 0.0 | 0.00 | 0.00 | 0.00 | 95 | 1015.0 |
| 20260507075144 | 71 | 110 | 3.5 | 0.0 | 0.00 | 0.00 | 0.00 | 95 | 1015.0 |
| 20260507074143 | 71 | 110 | 3.5 | 0.0 | 0.00 | 0.00 | 0.00 | 95 | 1015.0 |
| 20260507073142 | 71 | 110 | 3.5 | 0.0 | 0.00 | 0.00 | 0.00 | 95 | 1016.0 |
| 20260507072141 | 71 | 110 | 3.5 | 0.0 | 0.00 | 0.00 | 0.00 | 95 | 1016.0 |
| 20260507071140 | 72 | 120 | 3.5 | 0.0 | 0.00 | 0.00 | 0.00 | 96 | 1016.0 |
| 20260507070139 | 72 | 120 | 3.5 | 0.0 | 0.00 | 0.00 | 0.00 | 96 | 1016.0 |
| 20260507065138 | 73 | 120 | 3.5 | 0.0 | 0.00 | 0.00 | 0.00 | 94 | 1016.0 |
| 20260507064137 | 73 | 120 | 3.5 | 0.0 | 0.00 | 0.00 | 0.00 | 94 | 1016.0 |
| 20260507063136 | 73 | 120 | 3.5 | 0.0 | 0.00 | 0.00 | 0.00 | 94 | 1016.0 |
| 20260507062134 | 73 | 120 | 3.5 | 0.0 | 0.00 | 0.00 | 0.00 | 94 | 1016.0 |
| 20260507061133 | 73 | 120 | 3.5 | 0.0 | 0.00 | 0.00 | 0.00 | 94 | 1016.0 |
| 20260507060132 | 73 | 130 | 3.5 | 0.0 | 0.00 | 0.00 | 0.00 | 94 | 1016.0 |
| 20260507055131 | 73 | 130 | 3.5 | 0.0 | 0.00 | 0.00 | 0.00 | 94 | 1016.0 |
| 20260507054130 | 73 | 130 | 3.5 | 0.0 | 0.00 | 0.00 | 0.00 | 94 | 1016.0 |
| 20260507053127 | 73 | 130 | 3.5 | 0.0 | 0.00 | 0.00 | 0.00 | 94 | 1016.0 |
| 20260507052125 | 73 | 130 | 3.5 | 0.0 | 0.00 | 0.00 | 0.00 | 94 | 1017.0 |
| 20260507051123 | 73 | 100 | 3.5 | 0.0 | 0.00 | 0.00 | 0.00 | 94 | 1017.0 |
| 20260507050122 | 73 | 100 | 3.5 | 0.0 | 0.00 | 0.00 | 0.00 | 94 | 1017.0 |
| 20260507045121 | 73 | 100 | 3.5 | 0.0 | 0.00 | 0.00 | 0.00 | 94 | 1017.0 |
| 20260507044119 | 74 | 100 | 3.5 | 0.0 | 0.00 | 0.00 | 0.00 | 94 | 1017.0 |
| 20260507043118 | 75 | 100 | 3.5 | 0.0 | 0.00 | 0.00 | 0.00 | 83 | 1017.0 |
| 20260507042116 | 75 | 100 | 3.5 | 0.0 | 0.00 | 0.00 | 0.00 | 83 | 1017.0 |
| 20260507041115 | 75 | 110 | 3.5 | 0.0 | 0.00 | 0.00 | 0.00 | 83 | 1017.0 |
| 20260507040113 | 75 | 110 | 3.5 | 0.0 | 0.00 | 0.00 | 0.00 | 83 | 1017.0 |
| 20260507035112 | 75 | 110 | 3.5 | 0.0 | 0.00 | 0.00 | 0.00 | 83 | 1017.0 |
| 20260507034111 | 75 | 110 | 3.5 | 0.0 | 0.00 | 0.00 | 0.00 | 83 | 1017.0 |
| 20260507033108 | 75 | 110 | 3.5 | 0.0 | 0.00 | 0.00 | 0.00 | 83 | 1017.0 |
| 20260507032107 | 75 | 110 | 3.5 | 0.0 | 0.00 | 0.00 | 0.00 | 83 | 1017.0 |
| 20260507031106 | 75 | 110 | 3.5 | 0.0 | 0.00 | 0.00 | 0.00 | 83 | 1017.0 |
| 20260507025101 | 77 | 70 | 4.3 | 0.0 | 0.00 | 0.00 | 0.00 | 78 | 1017.0 |
| 20260507024059 | 77 | 70 | 4.3 | 0.0 | 0.00 | 0.00 | 0.00 | 78 | 1017.0 |
| 20260507023057 | 77 | 70 | 4.3 | 0.0 | 0.00 | 0.00 | 0.00 | 78 | 1017.0 |
| 20260507022055 | 77 | 70 | 4.3 | 0.0 | 0.00 | 0.00 | 0.00 | 78 | 1017.0 |
| 20260507021053 | 77 | 70 | 4.3 | 0.0 | 0.00 | 0.00 | 0.00 | 78 | 1017.0 |
| 20260507020051 | 79 | 60 | 5.2 | 0.0 | 0.00 | 0.00 | 0.00 | 65 | 1017.0 |
| 20260507015049 | 79 | 60 | 5.2 | 0.0 | 0.00 | 0.00 | 0.00 | 65 | 1017.0 |
| 20260507014048 | 79 | 60 | 5.2 | 0.0 | 0.00 | 0.00 | 0.00 | 65 | 1017.0 |
| 20260507013045 | 79 | 60 | 5.2 | 0.0 | 0.00 | 0.00 | 0.00 | 65 | 1017.0 |
| 20260507012043 | 79 | 60 | 5.2 | 0.0 | 0.00 | 0.00 | 0.00 | 65 | 1016.0 |
| 20260507011042 | 79 | 60 | 5.2 | 0.0 | 0.00 | 0.00 | 0.00 | 65 | 1016.0 |
| 20260507010041 | 81 | 60 | 7.8 | 0.0 | 0.00 | 0.00 | 0.00 | 61 | 1016.0 |
| 20260507005039 | 81 | 60 | 7.8 | 0.0 | 0.00 | 0.00 | 0.00 | 61 | 1016.0 |
| 20260507004038 | 81 | 60 | 7.8 | 0.0 | 0.00 | 0.00 | 0.00 | 61 | 1016.0 |
| 20260507003037 | 81 | 60 | 7.8 | 0.0 | 0.00 | 0.00 | 0.00 | 61 | 1016.0 |
| 20260507002036 | 81 | 60 | 7.8 | 0.0 | 0.00 | 0.00 | 0.00 | 61 | 1016.0 |
| 20260507001035 | 83 | 90 | 7.0 | 0.0 | 0.00 | 0.00 | 0.00 | 61 | 1016.0 |
| 20260507000033 | 83 | 90 | 7.0 | 0.0 | 0.00 | 0.00 | 0.00 | 61 | 1016.0 |
| 20260506235031 | 83 | 90 | 7.0 | 0.0 | 0.00 | 0.00 | 0.00 | 61 | 1016.0 |
| 20260506234030 | 83 | 90 | 7.0 | 0.0 | 0.00 | 0.00 | 0.00 | 61 | 1016.0 |
| 20260506233027 | 82 | 90 | 7.0 | 0.0 | 0.00 | 0.00 | 0.00 | 61 | 1016.0 |
| 20260506232026 | 83 | 90 | 7.0 | 0.0 | 0.00 | 0.00 | 0.00 | 61 | 1015.0 |
| 20260506231025 | 83 | 90 | 7.0 | 0.0 | 0.00 | 0.00 | 0.00 | 61 | 1015.0 |
| 20260506230023 | 88 | 100 | 8.7 | 0.0 | 0.00 | 0.00 | 0.00 | 55 | 1015.0 |
| 20260506225022 | 88 | 100 | 8.7 | 0.0 | 0.00 | 0.00 | 0.00 | 55 | 1015.0 |
| 20260506224020 | 88 | 100 | 8.7 | 0.0 | 0.00 | 0.00 | 0.00 | 55 | 1015.0 |
| 20260506223019 | 88 | 100 | 11.3 | 0.0 | 0.00 | 0.00 | 0.00 | 53 | 1015.0 |
| 20260506222017 | 88 | 100 | 11.3 | 0.0 | 0.00 | 0.00 | 0.00 | 53 | 1014.0 |
| 20260506221015 | 88 | 100 | 11.3 | 0.0 | 0.00 | 0.00 | 0.00 | 52 | 1014.0 |
| 20260506220014 | 89 | 100 | 11.3 | 0.0 | 0.00 | 0.00 | 0.00 | 51 | 1014.0 |
| 20260506215013 | 89 | 100 | 11.3 | 0.0 | 0.00 | 0.00 | 0.00 | 51 | 1014.0 |
| 20260506214011 | 89 | 100 | 11.3 | 0.0 | 0.00 | 0.00 | 0.00 | 51 | 1014.0 |
| 20260506213010 | 89 | 100 | 11.3 | 0.0 | 0.00 | 0.00 | 0.00 | 51 | 1014.0 |
| 20260506212009 | 89 | 100 | 11.3 | 0.0 | 0.00 | 0.00 | 0.00 | 51 | 1014.0 |
| 20260506211007 | 89 | 100 | 11.3 | 0.0 | 0.00 | 0.00 | 0.00 | 51 | 1014.0 |
| 20260506210005 | 89 | 100 | 11.3 | 0.0 | 0.00 | 0.00 | 0.00 | 51 | 1014.0 |
| 20260506205004 | 89 | 100 | 11.3 | 0.0 | 0.00 | 0.00 | 0.00 | 51 | 1014.0 |
| 20260506204002 | 89 | 100 | 11.3 | 0.0 | 0.00 | 0.00 | 0.00 | 51 | 1014.0 |
| 20260506203001 | 89 | 100 | 11.3 | 0.0 | 0.00 | 0.00 | 0.00 | 51 | 1014.0 |
| 20260506202000 | 89 | 100 | 11.3 | 0.0 | 0.00 | 0.00 | 0.00 | 51 | 1014.0 |
| 20260506200958 | 89 | 100 | 11.3 | 0.0 | 0.00 | 0.00 | 0.00 | 51 | 1014.0 |
| 20260506195957 | 89 | 100 | 11.3 | 0.0 | 0.00 | 0.00 | 0.00 | 50 | 1014.0 |
| 20260506194956 | 89 | 100 | 11.3 | 0.0 | 0.00 | 0.00 | 0.00 | 50 | 1014.0 |
| 20260506193954 | 89 | 100 | 11.3 | 0.0 | 0.00 | 0.00 | 0.00 | 50 | 1014.0 |
| 20260506192953 | 89 | 100 | 11.3 | 0.0 | 0.00 | 0.00 | 0.00 | 50 | 1015.0 |
| 20260506191951 | 89 | 100 | 11.3 | 0.0 | 0.00 | 0.00 | 0.00 | 50 | 1015.0 |
| 20260506190950 | 89 | 100 | 11.3 | 0.0 | 0.00 | 0.00 | 0.00 | 50 | 1015.0 |
| 20260506185949 | 89 | 100 | 11.3 | 0.0 | 0.00 | 0.00 | 0.00 | 50 | 1015.0 |
| 20260506184948 | 89 | 100 | 11.3 | 0.0 | 0.00 | 0.00 | 0.00 | 50 | 1015.0 |
| 20260506183946 | 89 | 100 | 11.3 | 0.0 | 0.00 | 0.00 | 0.00 | 50 | 1015.0 |
| 20260506182945 | 89 | 100 | 11.3 | 0.0 | 0.00 | 0.00 | 0.00 | 50 | 1015.0 |
| 20260506181944 | 89 | 100 | 11.3 | 0.0 | 0.00 | 0.00 | 0.00 | 51 | 1015.0 |
| 20260506180942 | 88 | 100 | 11.3 | 0.0 | 0.00 | 0.00 | 0.00 | 52 | 1015.0 |
| 20260506175941 | 87 | 100 | 11.3 | 0.0 | 0.00 | 0.00 | 0.00 | 53 | 1015.0 |
| 20260506174939 | 87 | 100 | 11.3 | 0.0 | 0.00 | 0.00 | 0.00 | 53 | 1015.0 |
| 20260506173938 | 87 | 100 | 11.3 | 0.0 | 0.00 | 0.00 | 0.00 | 53 | 1015.0 |
| 20260506172937 | 87 | 100 | 11.3 | 0.0 | 0.00 | 0.00 | 0.00 | 54 | 1016.0 |
| 20260506171935 | 87 | 100 | 11.3 | 0.0 | 0.00 | 0.00 | 0.00 | 55 | 1016.0 |
| 20260506170934 | 86 | 100 | 11.3 | 0.0 | 0.00 | 0.00 | 0.00 | 56 | 1016.0 |
| 20260506165933 | 85 | 100 | 9.6 | 0.0 | 0.00 | 0.00 | 0.00 | 59 | 1016.0 |
| 20260506164932 | 85 | 100 | 9.6 | 0.0 | 0.00 | 0.00 | 0.00 | 59 | 1016.0 |
| 20260506163930 | 85 | 100 | 9.6 | 0.0 | 0.00 | 0.00 | 0.00 | 59 | 1016.0 |
| 20260506162929 | 85 | 100 | 9.6 | 0.0 | 0.00 | 0.00 | 0.00 | 59 | 1017.0 |
| 20260506161927 | 85 | 100 | 9.6 | 0.0 | 0.00 | 0.00 | 0.00 | 59 | 1017.0 |
| 20260506160926 | 84 | 100 | 9.6 | 0.0 | 0.00 | 0.00 | 0.00 | 59 | 1017.0 |
| 20260506155924 | 83 | 120 | 9.6 | 21.7 | 0.00 | 0.00 | 0.00 | 59 | 1017.0 |
| 20260506154923 | 83 | 120 | 9.6 | 21.7 | 0.00 | 0.00 | 0.00 | 59 | 1017.0 |
| 20260506153921 | 83 | 120 | 9.6 | 21.7 | 0.00 | 0.00 | 0.00 | 59 | 1017.0 |
| 20260506152920 | 83 | 120 | 9.6 | 21.7 | 0.00 | 0.00 | 0.00 | 60 | 1017.0 |
| 20260506151918 | 83 | 120 | 9.6 | 21.7 | 0.00 | 0.00 | 0.00 | 61 | 1017.0 |
| 20260506150917 | 83 | 120 | 9.6 | 21.7 | 0.00 | 0.00 | 0.00 | 62 | 1017.0 |
| 20260506145916 | 83 | 120 | 7.8 | 0.0 | 0.00 | 0.00 | 0.00 | 65 | 1017.0 |
| 20260506144914 | 83 | 120 | 7.8 | 0.0 | 0.00 | 0.00 | 0.00 | 65 | 1017.0 |
| 20260506143913 | 83 | 120 | 7.8 | 0.0 | 0.00 | 0.00 | 0.00 | 65 | 1017.0 |
| 20260506142911 | 83 | 120 | 7.8 | 0.0 | 0.00 | 0.00 | 0.00 | 65 | 1017.0 |
| 20260506141910 | 83 | 120 | 7.8 | 0.0 | 0.00 | 0.00 | 0.00 | 65 | 1017.0 |
| 20260506140908 | 83 | 120 | 7.8 | 0.0 | 0.00 | 0.00 | 0.00 | 65 | 1018.0 |
| 20260506135907 | 75 | 100 | 3.5 | 0.0 | 0.00 | 0.00 | 0.00 | 83 | 1018.0 |
| 20260506134905 | 75 | 100 | 3.5 | 0.0 | 0.00 | 0.00 | 0.00 | 83 | 1018.0 |
| 20260506133904 | 75 | 100 | 3.5 | 0.0 | 0.00 | 0.00 | 0.00 | 83 | 1018.0 |
| 20260506132902 | 75 | 100 | 3.5 | 0.0 | 0.00 | 0.00 | 0.00 | 83 | 1018.0 |
| 20260506131901 | 75 | 100 | 3.5 | 0.0 | 0.00 | 0.00 | 0.00 | 83 | 1018.0 |
| 20260506130900 | 75 | 100 | 3.5 | 0.0 | 0.00 | 0.00 | 0.00 | 83 | 1018.0 |
| 20260506125858 | 68 | 0 | 0.0 | 0.0 | 0.00 | 0.00 | 0.00 | 10 | 1018.0 |
| 20260506124857 | 68 | 0 | 0.0 | 0.0 | 0.00 | 0.00 | 0.00 | 10 | 1018.0 |
| 20260506123856 | 69 | 110 | 3.5 | 7.0 | 0.00 | 0.00 | 0.00 | 97 | 1018.0 |
| 20260506122854 | 69 | 110 | 3.5 | 7.0 | 0.00 | 0.00 | 0.00 | 97 | 1018.0 |
| 20260506121853 | 69 | 110 | 3.5 | 7.0 | 0.00 | 0.00 | 0.00 | 97 | 1018.0 |
| 20260506120851 | 69 | 110 | 3.5 | 7.0 | 0.00 | 0.00 | 0.00 | 97 | 1018.0 |
| 20260506115850 | 69 | 110 | 3.5 | 7.0 | 0.00 | 0.00 | 0.00 | 97 | 1018.0 |